Location: Podia
(1.5569°N, 32.3469°E)
Time: 10:18:45
(UTC+00:00)

N. Korean satellite - Pass Details

Date: 15 August 2020
Orbit: 455 x 503 km, 97.2° (Epoch: 22 September)

Event Time Altitude Azimuth Distance (km) Brightness Sun altitude
Rises 02:59:48 0° 12° (NNE) 2,555 10.6 -13.0°
Reaches altitude 10° 03:01:51 10° 14° (NNE) 1,683 9.7 -12.5°
Maximum altitude 03:05:29 81° 101° (E) 508 6.7 -11.7°
Drops below altitude 10° 03:09:09 10° 188° (S) 1,707 9.1 -10.8°
Sets 03:11:15 0° 189° (S) 2,596 10.0 -10.3°
